Change the Weather History Date:

Thursday, July 11, 2013

  Actual Average Record
Temperature  
Mean Temperature 71 °F 71 °F  
Max Temperature 85 °F 83 °F 108 °F (1936)
Min Temperature 57 °F 60 °F 48 °F (1951)
Degree Days  
Heating Degree Days 0 0  
Month to date heating degree days 0 3  
Since 1 June heating degree days 69 65  
Since 1 July heating degree days 0 3  
Cooling Degree Days 6 7  
Month to date cooling degree days 85 66  
Year to date cooling degree days 227 183  
Since 1 June cooling degree days 202 160  
Growing Degree Days 20 (Base 50)    
Moisture  
Dew Point 62 °F    
Average Humidity 76    
Maximum Humidity 100    
Minimum Humidity 51    
Precipitation  
Precipitation 0.00 in 0.12 in 2.00 in (1912)
Month to date precipitation 1.77 1.25  
Year to date precipitation 16.69 11.97  
Sea Level Pressure  
Sea Level Pressure 29.91 in    
Wind  
Wind Speed 11 mph (South)    
Max Wind Speed 22 mph    
Max Gust Speed 30 mph    
T = Trace of Precipitation, MM = Missing Value Source: NWS Daily Summary

Daily Weather History Graph

Daily Weather History Graph

Search for Another Location

Airport or City:

Trip Planner

Search our weather history database for the weather conditions in past years. The results will help you decide how hot, cold, wet, or windy it might be!

Date:

Astronomy

Jul. 11, 2013 Rise Set
Actual Time 5:49 AM CDT 9:16 PM CDT
Civil Twilight 5:12 AM CDT 9:53 PM CDT
Nautical Twilight 4:24 AM CDT 10:42 PM CDT
Astronomical Twilight 3:21 AM CDT 11:44 PM CDT
Moon 9:22 AM CDT (7/11) 10:43 PM CDT (7/11)
Length of Visible Light 16h 40m
Length of Day
15h 26m
Waxing Crescent, 11% of the Moon is Illuminated
Jul 11
Waxing Crescent
Jul 15
First Quarter
Jul 22
Full
Jul 29
Last Quarter
Aug 6
New

Hourly Weather History & Observations

Time (CDT) Temp. Heat Index Dew Point Humidity Pressure Visibility Wind Dir Wind Speed Gust Speed Precip Events Conditions
12:56 AM 61.0 °F - 59.0 °F 93% 30.01 in - SW 5.8 mph - N/A   Unknown
1:56 AM 59.0 °F - 57.0 °F 93% 30.01 in - SSE 3.5 mph - N/A   Unknown
2:56 AM 59.0 °F - 57.0 °F 93% 30.00 in - South 3.5 mph - N/A   Unknown
3:56 AM 57.9 °F - 55.9 °F 93% 30.01 in - ESE 3.5 mph - N/A   Unknown
4:56 AM 57.0 °F - 55.9 °F 96% 30.00 in - SSE 3.5 mph - N/A   Unknown
5:56 AM 57.9 °F - 57.0 °F 97% 30.00 in - SSE 4.6 mph - N/A   Unknown
6:56 AM 60.1 °F - 57.9 °F 93% 30.00 in - SSE 3.5 mph - N/A   Unknown
7:56 AM 64.9 °F - 59.0 °F 81% 29.99 in - South 8.1 mph - N/A   Unknown
8:56 AM 69.1 °F - 61.0 °F 75% 29.97 in - South 10.4 mph - N/A   Unknown
9:56 AM 72.0 °F - 61.0 °F 68% 29.96 in - South 11.5 mph - N/A   Unknown
10:56 AM 77.0 °F - 64.9 °F 66% 29.94 in - South 12.7 mph 18.4 mph N/A   Unknown
11:56 AM 81.0 °F 82.5 °F 64.0 °F 56% 29.91 in - South 13.8 mph 20.7 mph N/A   Unknown
12:56 PM 82.0 °F 83.8 °F 64.9 °F 56% 29.90 in - South 13.8 mph 24.2 mph N/A   Unknown
1:56 PM 82.9 °F 85.4 °F 66.9 °F 58% 29.88 in - South 13.8 mph 25.3 mph N/A   Unknown
2:56 PM 84.0 °F 86.3 °F 66.0 °F 55% 29.86 in - South 15.0 mph 27.6 mph N/A   Unknown
3:56 PM 84.9 °F 87.6 °F 66.9 °F 55% 29.85 in - South 15.0 mph 29.9 mph N/A   Unknown
4:56 PM 84.0 °F 85.8 °F 64.9 °F 53% 29.84 in - SSW 18.4 mph 25.3 mph N/A   Unknown
5:56 PM 84.0 °F 85.8 °F 64.9 °F 53% 29.83 in - SSW 17.3 mph 26.5 mph N/A   Unknown
6:56 PM 82.9 °F 85.4 °F 66.9 °F 58% 29.81 in - South 16.1 mph 20.7 mph N/A   Unknown
7:56 PM 81.0 °F 83.3 °F 66.9 °F 62% 29.81 in - South 10.4 mph - N/A   Unknown
8:56 PM 78.1 °F - 64.9 °F 64% 29.79 in - South 10.4 mph - N/A   Unknown
9:56 PM 75.9 °F - 64.9 °F 69% 29.78 in - South 11.5 mph - N/A   Unknown
10:56 PM 75.0 °F - 64.0 °F 69% 29.79 in - South 10.4 mph - N/A   Unknown
11:56 PM 73.0 °F - 64.0 °F 73% 29.78 in - South 11.5 mph - N/A   Unknown